Regional Weather Roundup
Issued by NWS Boston, MA

Current Version | Previous Version | Text Only | Print | Product List | Glossary Off
Versions: 1 2 3 4 5 6 7 8 9 10 11 12 13 14 15 16 17 18 19 20 21 22 23 24 25 26 27
000 ASUS41 KBOX 240710 RWRBOX REGIONAL WEATHER ROUNDUP NATIONAL WEATHER SERVICE TAUNTON MA 300 AM EDT SAT JUN 24 2017 NOTE: "FAIR" INDICATES FEW OR NO CLOUDS BELOW 12,000 FEET WITH NO SIGNIFICANT WEATHER AND/OR OBSTRUCTIONS TO VISIBILITY. MAZALL-240800- EASTERN MASSACHUSETTS CITY SKY/WX TMP DP RH WIND PRES REMARKS BOSTON MOCLDY 71 70 96 S14 29.54F BEVERLY PTCLDY 74 71 91 S6 29.53F LAWRENCE MOCLDY 75 73 93 S6 29.54F BEDFORD CLOUDY 75 69 81 S9 29.52F BLUE HILL N/A 71 69 93 S15G23 29.56F NORWOOD CLOUDY 73 71 93 S7 29.55F MARSHFIELD PTCLDY 73 72 94 SW8G15 29.56F PLYMOUTH CLOUDY 72 69 90 S9 29.59F TAUNTON CLOUDY 72 68 87 S6 29.58F NEW BEDFORD MOCLDY 71 69 93 SW15 29.59F $$ MAZALL-240800- CAPE COD AND THE ISLANDS CITY SKY/WX TMP DP RH WIND PRES REMARKS FALMOUTH N/A N/A N/A N/A MISG N/A HYANNIS CLOUDY 69 68 96 SW15G26 29.61F FOG CHATHAM CLOUDY 68 68 100 SW9G23 29.64F FOG PROVINCETOWN CLOUDY 67 66 97 SW17G24 29.59F FOG NANTUCKET FOG 65 65 100 S17 29.66F VSB 1/2 MARTHAS VNYRD CLOUDY 68 66 93 SW16G28 29.63F FOG $$ MAZALL-240800- CENTRAL AND WESTERN MASSACHUSETTS CITY SKY/WX TMP DP RH WIND PRES REMARKS WORCESTER CLOUDY 72 69 90 SW14 29.58F FITCHBURG N/A 78 72 81 S7 29.54F ORANGE LGT RAIN 73 73 100 CALM 29.54F SPRINGFIELD CLOUDY 74 71 87 S10 29.53F WESTFIELD CLOUDY 74 72 93 S7 N/A NORTH ADAMS CLOUDY 70 69 97 VRB3 29.55S PITTSFIELD LGT RAIN 71 68 90 W7 29.57S $$ RIZALL-240800- RHODE ISLAND CITY SKY/WX TMP DP RH WIND PRES REMARKS PROVIDENCE PTCLDY 74 72 93 S10 29.59F NEWPORT CLOUDY 68 68 100 S9 29.60F FOG BLOCK ISLAND PTCLDY 67 66 97 SW15 29.62F FOG WESTERLY CLOUDY 73 69 87 SW10G17 29.61F $$ CTZALL-240800- CONNECTICUT CITY SKY/WX TMP DP RH WIND PRES REMARKS BRADLEY INTL CLOUDY 76 72 87 S12 29.55F HARTFORD CLOUDY 77 71 82 S12 29.55F BRIDGEPORT MOCLDY 73 69 87 SW9 29.60S DANBURY CLOUDY 75 71 87 SW9 29.62S GROTON CLOUDY 72 68 87 SW13 29.59F NEW HAVEN NOT AVBL CHESTER FAIR 73 72 94 VRB7 29.61S MERIDEN MOCLDY 74 70 87 S10 29.57F WILLIMANTIC CLOUDY 76 72 87 S7 29.57F OXFORD MOCLDY 73 68 83 SW5 29.61F $$ MEZ002-015-021-024-NHZ003-005-008-011-012-014-VTZ005-008-240800- NORTHERN NEW ENGLAND CITY SKY/WX TMP DP RH WIND PRES REMARKS PORTLAND ME CLOUDY 69 66 90 S6 29.49F BANGOR ME FOG 62 62 100 S7 29.49F VSB 3/4 CONCORD NH LGT RAIN 73 71 93 S6 29.51F FOG MANCHESTER NH CLOUDY 76 70 82 S9 29.50F NASHUA NH CLOUDY 75 72 90 VRB3 29.52F PORTSMOUTH NH MOCLDY 75 71 86 SW8 29.49F JAFFREY NH CLOUDY 73 72 96 SW6 29.56F KEENE NH CLOUDY 72 71 97 SW5 29.53F BURLINGTON VT LGT RAIN 71 70 96 W6 29.47S MT. WASHINGTON LGT RAIN 55 55 100 W41 N/A VSB 0 $$ NYZ052-076-240800- EASTERN NEW YORK CITY SKY/WX TMP DP RH WIND PRES REMARKS ALBANY LGT RAIN 74 69 85 S8 29.53F NEW YORK CITY LGT RAIN 76 72 87 W13G28 29.61F FOG $$ ANZALL-240800- MARINE OBSERVATIONS STATION/POSITION TIME TEMP WIND PRES VSBY WAVE AIR SEA DIR/SP/G HT/PER (UTC) (F) (DEG/KT/KT) (MB) (MI) (FT/S) BOSTON BUOY 0650 62 58 160/ 8/ 10 1000.6F 2/ 3 BUZZARDS BAY 0600 66 230/ 14/ 15 1003.8R NANTUCKET SOUND 0650 65 1002.8F 3/ 4 MASS BAY-STELLWA 0604 63 59 200/ 12/ 14 1000.4F 3/ 5 ISLE OF SHOALS 0600 68 190/ 23/ 23 999.8F S OF BLOCK IS 0655 63 N/A 6/ 6 $$ ......................KEY......................... SKY/WX - SKY CONDITION/PRESENT WEATHER TMP - TEMPERATURE IN FAHRENHEIT DWPT - DEWPOINT IN FAHRENHEIT RH - RELATIVE HUMIDITY IN PERCENT WIND - DIRECTION AND SPEED IN MPH PRES - MEAN SEA LEVEL PRESSURE IN INCHES OF HG WCI - WIND CHILL INDEX VSB - VISIBILITY IN MILES HX - HEAT INDEX TC - TEMPERATURE IN CELSIUS VRB - VARIABLE WIND DIRECTION N/A - NOT AVAILABLE

USA.gov is the U.S. government's official web portal to all federal, state and local government web resources and services.